Miscellaneous Local Product
Issued by NWS North Platte, NE

Home | Current Version | Previous Version | Text Only | Print | Product List | Glossary On
Versions: 1 2 3 4 5 6 7 8 9 10 11 12 13 14 15 16 17 18 19 20 21 22 23 24 25 26 27 28 29 30 31 32 33 34 35 36 37 38 39 40 41 42 43 44 45 46 47 48 49 50
000
AXUS43 KLBF 252010
MISLBF


WESTERN AND NORTH CENTRAL NEBRASKA HOURLY WEATHER ROUNDUP
NATIONAL WEATHER SERVICE NORTH PLATTE NE
300 PM CDT FRI JUL 25 2014

***STATIONS NOT REPORTING VARIABLES SUCH AS SKY/WEATHER OR
PRESSURE ARE PROVIDED BY THE NEBRASKA DEPARTMENT OF
ROADS...RAWS...AND APRS NETWORKS...AND ARE NOT UNDER
NATIONAL WEATHER SERVICE QUALITY CONTROL***

...OBSERVATIONS IN AND NEAR THE EASTERN PANHANDLE OF NEBRASKA...

CITY           SKY/WX    TMP DP  RH WIND       PRES   REMARKS
PINE RIDGE     SUNNY     80  48  32 NE7       29.96F
CHADRON        SUNNY     83  43  24 SE5       29.95F
ALLIANCE       PTSUNNY   86  44  23 E7        29.98F
SIDNEY         MOSUNNY   90  50  25 VRB7      30.03F
WHITECLAY        N/A     81  46  29 SE3         N/A
RUSHVILLE        N/A     87  37  16 E14         N/A
GORDON           N/A     86  45  23 N9          N/A
CRESCENT LAKE    N/A     83  54  36 NE7G14      N/A
LISCO            N/A     88  50  27 N7          N/A
BIG SPRINGS      N/A     85  62  46 NE3         N/A
$$

...OBSERVATIONS IN NORTH CENTRAL NEBRASKA...

CITY           SKY/WX    TMP DP  RH WIND       PRES   REMARKS
VALENTINE      SUNNY     89  63  41 N16       29.88F HX  90
THEDFORD       PTSUNNY   86  66  50 N8        29.91F
AINSWORTH      SUNNY     86  66  51 N10G16    29.88S
O`NEILL        SUNNY     92  61  36 N10       29.82S HX  92
ORD            PTSUNNY   88  70  55 N12       29.82S HX  93
BROKEN BOW     MOSUNNY   89  70  53 N12       29.86F HX  94
BROWNLEE         N/A     93  67  42 E7          N/A  HX  96
SPRINGVIEW       N/A     89  69  52 N6G14       N/A  HX  93
DUNNING          N/A     88  71  56 SE7         N/A  HX  93
ROSE             N/A     90  74  59 W10         N/A  HX  99
NEWPORT          N/A     90  68  48 SW6         N/A  HX  93
SARGENT          N/A     89  72  56 CALM        N/A  HX  95
COMSTOCK         N/A     93  73  52 NE7         N/A  HX 102
CHAMBERS         N/A     91  67  44 W5          N/A  HX  94
$$

...OBSERVATIONS IN SOUTHWEST NEBRASKA AND FAR NORTHEAST COLORADO...

CITY           SKY/WX    TMP DP  RH WIND       PRES   REMARKS
WRAY             N/A     91  55  28 NE9       29.98F
HOLYOKE        FAIR      95  57  28 NE7       29.98F HX  94
IMPERIAL       MOSUNNY   90  60  36 N10       29.95F
OGALLALA       MOSUNNY   87  57  35 NE10      29.94F
NORTH PLATTE   MOSUNNY   90  66  45 N8        29.89F HX  92
MCCOOK         MOSUNNY   95  64  35 N14       29.88S HX  97
LEXINGTON      MOSUNNY   91  68  47 N5        29.86S HX  94
PAXTON           N/A     87  64  46 N3          N/A
SUTHERLAND       N/A     94  66  39 NE8         N/A  HX  97
BRADY            N/A     90  69  49 CALM        N/A  HX  94
GOTHENBURG       N/A     87  62  42 N8          N/A
CALLAWAY         N/A     86  74  67 N12         N/A  HX  94
$$

...SOME WEATHER OBSERVATIONS FROM AROUND THE REGION...

CITY           SKY/WX    TMP DP  RH WIND       PRES   REMARKS
DENVER         PTSUNNY   91  42  18 S10       30.08F
LARAMIE        LGT RAIN  80  50  34 NW7       30.20F
CHEYENNE       PTSUNNY   83  46  27 VRB5      30.14S
SCOTTSBLUFF    PTSUNNY   87  47  24 E8        29.99F
RAPID CITY     SUNNY     78  50  37 CALM      29.94F
PIERRE         SUNNY     87  47  24 N14G25    29.82F
WINNER         FAIR      93  66  40 N14       29.84S HX  96
SIOUX FALLS    PTSUNNY   82  72  71 VRB5      29.79S
OMAHA          MOSUNNY   91  74  57 SE8       29.73S HX 100
GRAND ISLAND   MOSUNNY   94  67  41 N12       29.80S HX  97
KANSAS CITY    MOSUNNY   94  73  50 SW14      29.81F HX 103
WICHITA        MOSUNNY  100  65  31 S21G29    29.82F HX 103
HAYS           SUNNY     99  64  32 SW5       29.79F HX 101
LIBERAL        SUNNY    102  57  22 S7        29.90F HX 101
GOODLAND       MOSUNNY   94  62  34 N10G21    29.96S HX  94
$$



USA.gov is the U.S. government's official web portal to all federal, state and local government web resources and services.